STARLINK-34377 (64279 NORAD) Tracking and Keplerian Element Data

This shows tracking and keplerian element data for the satellite.

Feedback or suggestion? Click here.




ElementValue
Catalog64279
NameSTARLINK-34377
Epoch Orbit3173
Epoch Day354.11008511
Epoch Year2025
RAAN126.2197
Inclination53.1601
Eccentricity0.0001251
Argument of Perigee98.5862
Mean Anonmoly261.528
Mean Motion15.30200741
Decay Rate0.00017391
L11 64279U 25120Z 25354.11008511 .00017391 00000+0 59792-3 0 9999
L22 64279 53.1601 126.2197 0001251 98.5862 261.5280 15.30200741 31732



Live tracking and technical data element details for STARLINK-34377 (NORAD 64279). STARLINK-34377 can be tracked NOW for your location showing map with azimuth and elevation plus other details from your city location.







IsCatalogInMostPopularTable: catalog: 64279, numindb: 4
Update: records affected: 1



GetName: 64279 STARLINK-34377

Hit Count: updated at: Sun, 08 Feb 2026 07:59:22 GMT